CZ-6A DEB

Satellite information

Favourite Embed

Satellite Type and Status

DEBRISIN ORBIT

Key statistics

Satellite CZ-6A DEB at a glance.

Uptime

909

Days in orbit

Revolutions

≈ 14.1

Per day

Orbit

SSO

Sun Synchronous Orbit

Inclination

98.8

Latest

Satellite identification and parameters

Extended collection of information and parameters for CZ-6A DEB.

Object identification

Identified? True

Debris? True

Object name: CZ-6A DEB

International designator: 2022-151AEK

Object number (NORAD): 56611

Object ID (CCSDS): 56611

Country: PEOPLES REPUBLIC OF CHINA (PRC)

Current information (Y/N): Y

RCS size: SMALL

Orbital parameters

Period: 102.096 minutes

Inclination: 98.8067 deg

SMA: 7235.996 km

Apoapsis: 889.136 km

Periapsis: 826.587 km

RAAN: 127.9848 deg

Eccentricy: 0.0043221

Argument of periapsis: 44.681 deg

Mean anomaly: 315.7831 deg

Mean motion: 14.10442036 rev/day

Mean motion (dot): 0.00000394 rev/day2

B* drag term: 0.00024374 1/REarth

Two-line elements (TLE)

Creation date: May 8, 2025, 3:01 a.m.

Reference frame: TEME

Reference center: EARTH

Epoch: May 7, 2025, 10:16 a.m. UTC

TLE line 0: 0 CZ-6A DEB

TLE line 1: 1 56611U 22151AEK 25127.42804022 .00000394 00000-0 24374-3 0 9998

TLE line 2: 2 56611 98.8067 127.9848 0043221 44.6810 315.7831 14.10442036104742

Live tracking on map

Real-time ground track for satellite CZ-6A DEB.

In-orbit conjunctions

A list of the most updated potential collisions computed for object CZ-6A DEB.

Target Orbit TCA Probability of collision Miss distance Type
COSMOS 2528 DEB LEO 2025-05-03 03:35:33 0.0001144211 479.0 (m) DEBRIS
DELTA 1 DEB SSO 2025-03-30 12:49:13 0.0001021622 114.0 (m) DEBRIS
THORAD AGENA D DEB SSO 2024-12-12 20:04:29 0.000180915 238.0 (m) DEBRIS
CZ-6A DEB LEO 2024-11-17 14:49:46 0.0002134169 213.0 (m) DEBRIS
COSMOS 1275 DEB LEO 2024-10-22 03:32:44 0.0005104171 152.0 (m) DEBRIS

Associated space launch

Chinese satellite reported for atmospheric/ocean/environmental/spatial parameter research purposes, details TBD.

CZ-6A DEB was lifted into orbit during the mission ‘Long March 6A | Yunhai 3’, on board a Long March 6A space rocket.

The launch took place on Nov. 11, 2022, 10:52 p.m. from Launch Complex 9A.

For more information about the launch, click the button.

Launch to space Long March 6A | Yunhai 3
Long March 6A | Yunhai 3

Agency: N/A

Status: Launch Successful

Launch date: Nov. 11, 2022, 10:52 p.m. UTC

Rocket: Long March 6A

Launch pad: Launch Complex 9A

Location: Taiyuan Satellite Launch Center, People's Republic of China

...

Latest news about this satellite

There are no fresh news available about this satellite. Check back as we update our databases every day.


Newsletter sign-up

Weekly statistics, charts and insights to help you stay on top of the space industry.